Time,TemperatureF,DewpointF,PressureIn,WindDirection,WindDirectionDegrees,WindSpeedMPH,WindSpeedGustMPH,Humidity,HourlyPrecipIn,Conditions,Clouds,dailyrainin,SoftwareType,DateUTC
2013-03-28 00:13:00,41.4,26.0,30.00,NW,307,8.0,8.0,55,0.00,,,0.00,weatherlink.com 1.10,2013-03-28 04:13:00,
2013-03-28 00:28:00,41.2,26.0,30.00,NNW,330,2.0,7.0,55,0.00,,,0.00,weatherlink.com 1.10,2013-03-28 04:28:00,
2013-03-28 00:43:00,40.6,26.0,29.99,NW,320,1.0,5.0,56,0.00,,,0.00,weatherlink.com 1.10,2013-03-28 04:43:00,
2013-03-28 00:59:00,40.4,26.0,30.00,NNW,327,2.0,5.0,56,0.00,,,0.00,weatherlink.com 1.10,2013-03-28 04:59:00,
2013-03-28 01:14:00,40.2,25.0,30.00,NW,311,4.0,7.0,56,0.00,,,0.00,weatherlink.com 1.10,2013-03-28 05:14:00,
2013-03-28 01:29:00,40.0,25.0,30.00,North,350,2.0,6.0,56,0.00,,,0.00,weatherlink.com 1.10,2013-03-28 05:29:00,
2013-03-28 01:44:00,39.7,25.0,30.00,NW,318,5.0,6.0,57,0.00,,,0.00,weatherlink.com 1.10,2013-03-28 05:44:00,
2013-03-28 02:02:00,39.1,25.0,30.00,NW,308,2.0,5.0,58,0.00,,,0.00,weatherlink.com 1.10,2013-03-28 06:02:00,
2013-03-28 02:16:00,38.8,25.0,30.00,NNW,328,4.0,4.0,59,0.00,,,0.00,weatherlink.com 1.10,2013-03-28 06:16:00,
2013-03-28 02:46:00,37.0,26.0,29.99,NW,312,1.0,3.0,65,0.00,,,0.00,weatherlink.com 1.10,2013-03-28 06:46:00,
2013-03-28 03:02:00,36.5,26.0,29.99,NW,304,1.0,3.0,65,0.00,,,0.00,weatherlink.com 1.10,2013-03-28 07:02:00,
2013-03-28 03:16:00,35.8,26.0,29.99,WNW,288,1.0,4.0,67,0.00,,,0.00,weatherlink.com 1.10,2013-03-28 07:16:00,
2013-03-28 03:31:00,35.6,26.0,29.99,NW,315,1.0,3.0,67,0.00,,,0.00,weatherlink.com 1.10,2013-03-28 07:31:00,
2013-03-28 03:47:00,35.5,25.0,29.98,NW,323,2.0,3.0,67,0.00,,,0.00,weatherlink.com 1.10,2013-03-28 07:47:00,
2013-03-28 04:02:00,35.4,26.0,29.99,WNW,294,1.0,3.0,68,0.00,,,0.00,weatherlink.com 1.10,2013-03-28 08:02:00,
2013-03-28 04:17:00,34.9,26.0,29.98,WNW,289,1.0,1.0,69,0.00,,,0.00,weatherlink.com 1.10,2013-03-28 08:17:00,
2013-03-28 04:32:00,35.1,26.0,29.98,NW,309,1.0,3.0,69,0.00,,,0.00,weatherlink.com 1.10,2013-03-28 08:32:00,
2013-03-28 04:47:00,35.0,26.0,29.98,NW,326,2.0,4.0,69,0.00,,,0.00,weatherlink.com 1.10,2013-03-28 08:47:00,
2013-03-28 05:03:00,34.8,26.0,29.99,NW,313,2.0,4.0,69,0.00,,,0.00,weatherlink.com 1.10,2013-03-28 09:03:00,
2013-03-28 05:18:00,34.5,26.0,29.98,WNW,285,1.0,5.0,71,0.00,,,0.00,weatherlink.com 1.10,2013-03-28 09:18:00,
2013-03-28 05:33:00,34.1,26.0,29.98,NW,313,2.0,3.0,72,0.00,,,0.00,weatherlink.com 1.10,2013-03-28 09:33:00,
2013-03-28 05:48:00,34.1,26.0,29.98,NW,320,2.0,3.0,72,0.00,,,0.00,weatherlink.com 1.10,2013-03-28 09:48:00,
2013-03-28 06:04:00,33.7,26.0,29.99,WNW,285,1.0,3.0,73,0.00,,,0.00,weatherlink.com 1.10,2013-03-28 10:04:00,
2013-03-28 06:19:00,33.4,26.0,29.99,WSW,256,0.0,2.0,74,0.00,,,0.00,weatherlink.com 1.10,2013-03-28 10:19:00,
2013-03-28 06:34:00,-999.0,-99.9,29.99,North,-999,-999.0,-999.0,-999,0.00,,,0.00,weatherlink.com 1.10,2013-03-28 10:34:00,
2013-03-28 06:49:00,-999.0,-99.9,30.00,North,-999,-999.0,-999.0,-999,0.00,,,0.00,weatherlink.com 1.10,2013-03-28 10:49:00,
2013-03-28 07:05:00,-999.0,-99.9,30.00,North,-999,-999.0,-999.0,-999,0.00,,,0.00,weatherlink.com 1.10,2013-03-28 11:05:00,
2013-03-28 07:21:00,32.0,26.0,30.00,West,277,2.0,2.0,78,0.00,,,0.00,weatherlink.com 1.10,2013-03-28 11:21:00,
2013-03-28 07:36:00,32.5,26.0,30.01,WNW,289,1.0,2.0,78,0.00,,,0.00,weatherlink.com 1.10,2013-03-28 11:36:00,
2013-03-28 07:51:00,33.6,27.0,30.01,NW,319,2.0,4.0,77,0.00,,,0.00,weatherlink.com 1.10,2013-03-28 11:51:00,
2013-03-28 08:06:00,35.2,27.0,30.02,NW,313,4.0,7.0,73,0.00,,,0.00,weatherlink.com 1.10,2013-03-28 12:06:00,
2013-03-28 08:53:00,40.4,29.0,30.01,NW,326,6.0,14.0,64,0.00,,,0.00,weatherlink.com 1.10,2013-03-28 12:53:00,
2013-03-28 09:06:00,41.7,29.0,30.02,NNW,335,4.0,9.0,61,0.00,,,0.00,weatherlink.com 1.10,2013-03-28 13:06:00,
2013-03-28 09:22:00,43.0,29.0,30.01,NNW,336,2.0,12.0,59,0.00,,,0.00,weatherlink.com 1.10,2013-03-28 13:22:00,
2013-03-28 09:37:00,44.3,29.0,30.01,NNE,14,7.0,-999.0,55,-99.99,,,0.00,weatherlink.com 1.10,2013-03-28 13:37:00,
2013-03-28 09:52:00,45.1,29.0,30.02,NE,49,2.0,14.0,53,0.00,,,0.00,weatherlink.com 1.10,2013-03-28 13:52:00,
2013-03-28 10:07:00,46.0,28.0,30.02,NNE,20,7.0,14.0,50,0.00,,,0.00,weatherlink.com 1.10,2013-03-28 14:07:00,
2013-03-28 10:23:00,46.6,28.0,30.02,NNE,15,10.0,12.0,48,0.00,,,0.00,weatherlink.com 1.10,2013-03-28 14:23:00,
2013-03-28 10:38:00,47.0,28.0,30.02,NNW,338,8.0,13.0,48,0.00,,,0.00,weatherlink.com 1.10,2013-03-28 14:38:00,
2013-03-28 11:09:00,48.5,27.0,30.01,North,7,7.0,12.0,44,0.00,,,0.00,weatherlink.com 1.10,2013-03-28 15:09:00,
2013-03-28 11:24:00,49.4,26.0,30.01,NW,312,7.0,11.0,41,0.00,,,0.00,weatherlink.com 1.10,2013-03-28 15:24:00,
2013-03-28 11:39:00,49.8,27.0,30.01,NNE,33,7.0,17.0,41,0.00,,,0.00,weatherlink.com 1.10,2013-03-28 15:39:00,
2013-03-28 11:54:00,51.3,26.0,30.00,NW,319,4.0,10.0,37,0.00,,,0.00,weatherlink.com 1.10,2013-03-28 15:54:00,
2013-03-28 12:09:00,50.5,27.0,30.00,NE,56,1.0,11.0,40,0.00,,,0.00,weatherlink.com 1.10,2013-03-28 16:09:00,
2013-03-28 12:26:00,51.0,25.0,30.00,North,1,5.0,11.0,37,0.00,,,0.00,weatherlink.com 1.10,2013-03-28 16:26:00,
2013-03-28 12:41:00,51.2,26.0,29.99,NNE,23,10.0,16.0,38,0.00,,,0.00,weatherlink.com 1.10,2013-03-28 16:41:00,
2013-03-28 12:56:00,51.8,26.0,29.99,North,351,4.0,15.0,37,0.00,,,0.00,weatherlink.com 1.10,2013-03-28 16:56:00,
2013-03-28 13:11:00,51.8,25.0,29.98,NNW,333,5.0,15.0,36,0.00,,,0.00,weatherlink.com 1.10,2013-03-28 17:11:00,
2013-03-28 13:26:00,51.9,26.0,29.98,NE,34,7.0,11.0,36,0.00,,,0.00,weatherlink.com 1.10,2013-03-28 17:26:00,
2013-03-28 13:41:00,52.8,26.0,29.98,NW,325,6.0,17.0,36,0.00,,,0.00,weatherlink.com 1.10,2013-03-28 17:41:00,
2013-03-28 13:56:00,53.3,26.0,29.97,NNW,330,8.0,13.0,35,0.00,,,0.00,weatherlink.com 1.10,2013-03-28 17:56:00,
2013-03-28 14:11:00,52.7,26.0,29.97,NW,318,4.0,9.0,35,0.00,,,0.00,weatherlink.com 1.10,2013-03-28 18:11:00,
2013-03-28 14:27:00,53.6,26.0,29.97,NW,326,13.0,16.0,34,0.00,,,0.00,weatherlink.com 1.10,2013-03-28 18:27:00,
2013-03-28 14:42:00,53.6,26.0,29.96,North,355,8.0,13.0,34,0.00,,,0.00,weatherlink.com 1.10,2013-03-28 18:42:00,
2013-03-28 14:57:00,53.8,27.0,29.96,North,354,5.0,16.0,35,0.00,,,0.00,weatherlink.com 1.10,2013-03-28 18:57:00,
2013-03-28 15:13:00,54.3,25.0,29.95,NW,323,7.0,19.0,32,0.00,,,0.00,weatherlink.com 1.10,2013-03-28 19:13:00,
2013-03-28 15:28:00,54.9,26.0,29.95,WNW,290,7.0,16.0,33,0.00,,,0.00,weatherlink.com 1.10,2013-03-28 19:28:00,
2013-03-28 15:43:00,54.7,25.0,29.95,NNW,345,8.0,10.0,32,0.00,,,0.00,weatherlink.com 1.10,2013-03-28 19:43:00,
2013-03-28 15:58:00,54.7,26.0,29.95,NNW,345,5.0,10.0,33,0.00,,,0.00,weatherlink.com 1.10,2013-03-28 19:58:00,
2013-03-28 16:13:00,54.7,26.0,29.94,NNE,31,5.0,12.0,33,0.00,,,0.00,weatherlink.com 1.10,2013-03-28 20:13:00,
2013-03-28 16:29:00,54.0,26.0,29.95,North,353,8.0,12.0,34,0.00,,,0.00,weatherlink.com 1.10,2013-03-28 20:29:00,
2013-03-28 16:44:00,54.4,26.0,29.94,NNW,333,5.0,12.0,33,0.00,,,0.00,weatherlink.com 1.10,2013-03-28 20:44:00,
2013-03-28 16:59:00,54.7,25.0,29.95,NNW,344,10.0,13.0,32,0.00,,,0.00,weatherlink.com 1.10,2013-03-28 20:59:00,
2013-03-28 17:14:00,54.1,25.0,29.95,WNW,294,8.0,18.0,32,0.00,,,0.00,weatherlink.com 1.10,2013-03-28 21:14:00,
2013-03-28 17:31:00,54.2,25.0,29.95,WNW,293,2.0,11.0,33,0.00,,,0.00,weatherlink.com 1.10,2013-03-28 21:31:00,
2013-03-28 18:02:00,54.2,25.0,29.96,North,11,6.0,8.0,33,0.00,,,0.00,weatherlink.com 1.10,2013-03-28 22:02:00,
2013-03-28 18:31:00,54.3,26.0,29.96,North,349,3.0,8.0,34,0.00,,,0.00,weatherlink.com 1.10,2013-03-28 22:31:00,
2013-03-28 18:46:00,54.7,26.0,29.96,NNE,25,4.0,7.0,33,0.00,,,0.00,weatherlink.com 1.10,2013-03-28 22:46:00,
2013-03-28 19:05:00,54.1,26.0,29.97,NNE,16,2.0,6.0,34,0.00,,,0.00,weatherlink.com 1.10,2013-03-28 23:05:00,
2013-03-28 19:16:00,53.4,26.0,29.97,WNW,300,3.0,4.0,35,0.00,,,0.00,weatherlink.com 1.10,2013-03-28 23:16:00,
2013-03-28 19:47:00,51.1,27.0,29.98,NW,314,0.0,3.0,39,0.00,,,0.00,weatherlink.com 1.10,2013-03-28 23:47:00,
2013-03-28 20:02:00,49.4,28.0,29.99,NW,312,0.0,1.0,44,0.00,,,0.00,weatherlink.com 1.10,2013-03-29 00:02:00,
2013-03-28 20:17:00,47.5,29.0,29.99,NW,305,0.0,0.0,49,0.00,,,0.00,weatherlink.com 1.10,2013-03-29 00:17:00,
2013-03-28 20:33:00,46.1,30.0,30.00,WNW,288,0.0,0.0,54,0.00,,,0.00,weatherlink.com 1.10,2013-03-29 00:33:00,
2013-03-28 20:47:00,44.7,31.0,30.00,West,262,0.0,1.0,59,0.00,,,0.00,weatherlink.com 1.10,2013-03-29 00:47:00,
2013-03-28 21:03:00,44.7,32.0,30.01,West,262,0.0,1.0,61,0.00,,,0.00,weatherlink.com 1.10,2013-03-29 01:03:00,
2013-03-28 21:18:00,43.9,31.0,30.01,West,262,0.0,0.0,62,0.00,,,0.00,weatherlink.com 1.10,2013-03-29 01:18:00,
2013-03-28 21:33:00,43.1,32.0,30.02,West,262,0.0,0.0,64,0.00,,,0.00,weatherlink.com 1.10,2013-03-29 01:33:00,
2013-03-28 21:48:00,42.5,32.0,30.02,West,262,0.0,0.0,66,0.00,,,0.00,weatherlink.com 1.10,2013-03-29 01:48:00,
2013-03-28 22:04:00,42.2,32.0,30.03,West,262,0.0,0.0,68,0.00,,,0.00,weatherlink.com 1.10,2013-03-29 02:04:00,
2013-03-28 22:19:00,42.3,33.0,30.04,ENE,70,4.0,4.0,69,0.00,,,0.00,weatherlink.com 1.10,2013-03-29 02:19:00,
2013-03-28 22:34:00,43.5,33.0,30.04,NNE,33,0.0,1.0,66,0.00,,,0.00,weatherlink.com 1.10,2013-03-29 02:34:00,
2013-03-28 22:50:00,41.5,33.0,30.05,WSW,253,1.0,1.0,71,0.00,,,0.00,weatherlink.com 1.10,2013-03-29 02:50:00,
2013-03-28 23:05:00,40.2,33.0,30.05,WSW,240,0.0,0.0,75,0.00,,,0.00,weatherlink.com 1.10,2013-03-29 03:05:00,
2013-03-28 23:21:00,39.2,33.0,30.05,WSW,240,0.0,0.0,78,0.00,,,0.00,weatherlink.com 1.10,2013-03-29 03:21:00,
2013-03-28 23:36:00,38.5,32.0,30.05,WSW,240,0.0,0.0,77,0.00,,,0.00,weatherlink.com 1.10,2013-03-29 03:36:00,
2013-03-28 23:51:00,37.8,32.0,30.05,WSW,240,0.0,0.0,79,0.00,,,0.00,weatherlink.com 1.10,2013-03-29 03:51:00,